Regional Weather Roundup
Issued by NWS Newport/Morehead, NC

Current Version | Previous Version | Text Only | Print | Product List | Glossary Off
Versions: 1 2 3 4 5 6 7 8 9 10 11 12 13 14 15 16 17 18 19 20 21 22 23 24 25 26 27 28 29 30 31 32 33 34 35 36 37 38 39 40 41 42 43 44 45 46 47 48 49 50
000 ASUS42 KMHX 032324 RWRMHX WEATHER ROUNDUP FOR EASTERN NORTH CAROLINA NATIONAL WEATHER SERVICE NEWPORT/MOREHEAD CITY NC 600 PM EST TUE MAR 03 2015 NOTE: "FAIR" INDICATES FEW OR NO CLOUDS BELOW 12,000 FEET WITH NO SIGNIFICANT WEATHER AND/OR OBSTRUCTIONS TO VISIBILITY NCZ015>017-031-032-045>047-102-103-040000- NORTH COAST CITY SKY/WX TMP DP RH WIND PRES REMARKS EDENTON CLOUDY 42 35 75 CALM 30.18S ELIZABETH CITY CLOUDY 43 35 73 S3 30.17F KITTY HAWK CLOUDY 47 42 82 SE6 30.15F MANTEO CLOUDY 46 41 81 S7 30.18F $$ NCZ045>047-081-094-103-104-040000- CENTRAL COAST CITY SKY/WX TMP DP RH WIND PRES REMARKS FRISCO CLOUDY 52 47 83 S15 30.19F SWANQUARTER N/A 50 N/A N/A SE3G10 30.12F $$ NCZ095-097-098-100-101-040000- SOUTHERN COAST CITY SKY/WX TMP DP RH WIND PRES REMARKS BEAUFORT CLOUDY 56 52 86 SE9 30.17F CEDAR ISLAND N/A 59 N/A N/A SE10G20 30.18F JACKSONVILLE LGT RAIN 47 44 90 N3 30.18S VSB 1/2 PINEY ISLAND N/A N/A N/A N/A MISG 30.17F WILMINGTON LGT RAIN 47 46 97 CALM 30.17S FOG $$ NCZ011>013-027>030-043-044-078>080-089-090>093-098-040000- COASTAL PLAIN CITY SKY/WX TMP DP RH WIND PRES REMARKS AHOSKIE RAIN 38 36 91 CALM 30.19F CLINTON DRIZZLE 39 39 100 NW3 30.21F ELIZABETHTOWN DRIZZLE 40 40 99 CALM 30.19F GOLDSBORO CLOUDY 39 39 100 NW3 30.18F FOG GREENVILLE DRIZZLE 41 41 100 NW3 30.21S HAVELOCK DRIZZLE 47 42 83 SE3 30.18F KENANSVILLE CLOUDY 40 40 100 CALM 30.20F FOG KINSTON DRZL/FOG 41 41 100 NW3 30.21R VSB 1 NEW BERN LGT RAIN 46 40 79 CALM 30.19F RICHLANDS CLOUDY 45 41 87 CALM 30.19S ROCKY MOUNT LGT RAIN 38 36 92 W3 30.20F FOG WASHINGTON DRIZZLE 42 40 93 CALM 30.19S WHITEVILLE DRIZZLE 44 42 93 CALM 30.19R $$ AMZ130-135-150-152-154-156-158-170-250-252-270-ANZ085-086-088-633-658-670-040000- MARINE OBSERVATIONS STATION/POSITION TIME TEMP WIND PRES WAVE SWELL AIR SEA DIR/SP/G HT/PER HT/PER (UTC) (F) (DEG/KT/KT) (MB) (FT/S) (FT/S) CHESAPEAKE LIGHT 2300 35 220/ 5/ 6 1022.0 64 E VA BEACH 2250 58 61 180/ 23/ 29 1020.2 3/ 6 2/ 7 DUCK 2300 42 36 160/ 11/ 11 1020.3 2 E DUCK 2211 35 N/A 3/ 6 10 NE DUCK 2222 37 N/A 3/ 5 OREGON INLET 2300 46 41 140/ 5/ 8 1021.9 HATTERAS CG 2300 52 44 160/ 9/ 12 1022.2 CAPE LOOKOUT 2300 56 150/ 14/ 14 1021.3 BEAUFORT LAB 2300 55 44 150/ 7/ 9 1020.6 27 SE WRIGHTSVLE NOT AVBL 5 SE WRIGHTSVLE NOT AVBL 225 S CAPE HAT 2250 66 72 140/ 16/ 17 1024.3 6/ 9 5/ 9 41 SE CHARLESTON 2250 63 68 330/ 8/ 10 1020.9 5/ 7 5/ 7 $$

USA.gov is the U.S. government's official web portal to all federal, state and local government web resources and services.